Date String (YYYY-MM-DD hh:mm:ss) UTC,Instrument flags,Ambient pressure (hPa),Sample flow (lpm),Bypass flow (lpm),Sample temperature (°C),Ambient temperature (°C),ASC tube jacket temperature (°C),LED temperature (°C),Box temperature (°C),Sample RH (%),Span deviation,Mass concentration (μg/m³),Mass concentration (μg/m³),Mass concentration (μg/m³)
DateTimeUTC,F1_M11,P_M11,Q1_M11,Q2_M11,T1_M11,T2_M11,T3_M11,T4_M11,T5_M11,U1_M11,ZSPAN_M11,X2_M11,X0_M11,X1_M11
2023-05-30 10:00:00,,0829.7,5.00,0.00,29.6,27.9,00.0,38.1,31.2,19.8,0000.0,0004.22,0009.11,0003.44
2023-05-30 10:01:00,,0829.7,5.01,0.00,29.6,27.9,00.0,38.1,31.2,19.8,0000.0,0004.19,0009.01,0003.43
2023-05-30 10:02:00,,0829.7,5.00,0.00,29.6,27.9,00.0,38.0,31.2,19.8,0000.0,0004.18,0008.42,0003.43
2023-05-30 10:03:00,,0829.7,5.00,0.00,29.6,27.9,00.0,38.0,31.2,19.8,0000.0,0004.16,0008.59,0003.43
2023-05-30 10:04:00,,0829.7,5.00,0.00,29.6,27.9,00.0,38.0,31.2,19.9,0000.0,0004.15,0009.03,0003.42
2023-05-30 10:05:00,,0829.7,5.00,0.00,29.6,27.9,00.0,38.0,31.2,19.9,0000.0,0004.19,0009.04,0003.44
2023-05-30 10:06:00,,0829.6,4.99,0.00,29.6,27.9,00.0,38.0,31.2,19.9,0000.0,0004.19,0008.97,0003.44
2023-05-30 10:07:00,,0829.6,5.00,0.00,29.6,27.8,00.0,38.0,31.2,19.8,0000.0,0004.12,0008.72,0003.42
2023-05-30 10:08:00,,0829.7,5.00,0.00,29.6,27.9,00.0,38.0,31.2,19.9,0000.0,0004.14,0008.65,0003.42
2023-05-30 10:09:00,,0829.7,5.01,0.00,29.6,27.9,00.0,38.0,31.2,19.9,0000.0,0004.15,0008.86,0003.42
2023-05-30 10:10:00,,0829.6,5.01,0.00,29.6,27.9,00.0,38.0,31.2,19.8,0000.0,0004.20,0008.78,0003.43
2023-05-30 10:11:00,,0829.7,5.00,0.00,29.6,27.9,00.0,38.0,31.2,19.9,0000.0,0004.29,0009.21,0003.44
2023-05-30 10:12:00,,0829.7,4.99,0.00,29.6,27.9,00.0,38.0,31.2,20.0,0000.0,0004.32,0009.67,0003.45
2023-05-30 10:13:00,,0829.6,4.99,0.00,29.6,27.9,00.0,38.0,31.1,20.3,0000.0,0004.35,0009.93,0003.45
2023-05-30 10:14:00,,0829.7,5.02,0.00,29.6,27.8,00.0,38.0,31.2,20.2,0000.0,0004.37,0010.10,0003.44
2023-05-30 10:15:00,,0829.6,5.01,0.00,29.6,27.8,00.0,38.0,31.1,20.0,0000.0,0004.38,0009.62,0003.45
2023-05-30 10:16:00,,0829.6,4.99,0.00,29.6,27.8,00.0,38.0,31.1,19.9,0000.0,0004.35,0009.39,0003.45
2023-05-30 10:17:00,,0829.7,4.99,0.00,29.6,27.8,00.0,38.0,31.1,19.9,0000.0,0004.31,0009.42,0003.44
2023-05-30 10:18:00,,0829.7,5.01,0.00,29.6,27.8,00.0,38.0,31.1,19.9,0000.0,0004.34,0009.63,0003.44
2023-05-30 10:19:00,,0829.6,5.01,0.00,29.6,27.8,00.0,38.0,31.1,19.9,0000.0,0004.36,0009.68,0003.45
2023-05-30 10:20:00,,0829.6,4.99,0.00,29.6,27.8,00.0,38.0,31.1,19.9,0000.0,0004.33,0009.60,0003.44
2023-05-30 10:21:00,,0829.7,4.99,0.00,29.6,27.8,00.0,38.0,31.1,19.8,0000.0,0004.31,0009.43,0003.44
2023-05-30 10:22:00,,0829.6,4.99,0.00,29.5,27.8,00.0,38.0,31.1,19.8,0000.0,0004.24,0009.40,0003.43
2023-05-30 10:23:00,,0829.6,4.99,0.00,29.5,27.8,00.0,38.0,31.1,19.8,0000.0,0004.20,0008.72,0003.41
2023-05-30 10:24:00,,0829.6,5.00,0.00,29.5,27.8,00.0,37.9,31.1,19.8,0000.0,0004.19,0008.63,0003.41
2023-05-30 10:25:00,,0829.6,5.02,0.00,29.5,27.8,00.0,37.9,31.1,20.0,0000.0,0004.16,0008.42,0003.41
2023-05-30 10:26:00,,0829.6,4.99,0.00,29.5,27.8,00.0,37.9,31.1,20.4,0000.0,0004.19,0008.52,0003.41
2023-05-30 10:27:00,,0829.6,4.99,0.00,29.5,27.8,00.0,37.9,31.1,20.5,0000.0,0004.21,0008.65,0003.40
2023-05-30 10:28:00,,0829.7,5.00,0.00,29.5,27.8,00.0,37.9,31.1,20.7,0000.0,0004.20,0008.62,0003.40
2023-05-30 10:29:00,,0829.6,5.02,0.00,29.5,27.8,00.0,37.9,31.1,20.7,0000.0,0004.20,0009.59,0003.40
2023-05-30 10:30:00,,0829.7,5.01,0.00,29.5,27.8,00.0,37.9,31.1,20.7,0000.0,0004.20,0009.67,0003.40
2023-05-30 10:31:00,,0829.7,5.00,0.00,29.5,27.8,00.0,37.9,31.1,20.6,0000.0,0004.24,0009.70,0003.40
2023-05-30 10:32:00,,0829.7,5.00,0.00,29.5,27.8,00.0,37.9,31.1,20.4,0000.0,0004.24,0009.52,0003.40
2023-05-30 10:33:00,,0829.7,4.99,0.00,29.5,27.8,00.0,37.9,31.1,20.4,0000.0,0004.26,0010.04,0003.40
2023-05-30 10:34:00,,0829.7,5.00,0.00,29.5,27.8,00.0,37.9,31.1,20.6,0000.0,0004.26,0010.15,0003.41
2023-05-30 10:35:00,,0829.7,5.00,0.00,29.5,27.7,00.0,37.9,31.0,20.4,0000.0,0004.26,0010.12,0003.42
2023-05-30 10:36:00,,0829.7,5.01,0.00,29.5,27.7,00.0,37.9,31.0,20.4,0000.0,0004.28,0010.22,0003.41
2023-05-30 10:37:00,,0829.7,5.01,0.00,29.5,27.7,00.0,37.9,31.1,20.4,0000.0,0004.25,0010.18,0003.40
2023-05-30 10:38:00,,0829.7,5.00,0.00,29.5,27.7,00.0,37.9,31.0,20.5,0000.0,0004.26,0010.19,0003.41
2023-05-30 10:39:00,,0829.7,5.00,0.00,29.5,27.7,00.0,37.9,31.0,20.3,0000.0,0004.32,0010.37,0003.43
2023-05-30 10:40:00,,0829.6,4.98,0.00,29.5,27.7,00.0,37.9,31.0,20.3,0000.0,0004.30,0009.36,0003.43
2023-05-30 10:41:00,,0829.7,5.00,0.00,29.5,27.7,00.0,37.9,31.0,20.3,0000.0,0004.28,0009.12,0003.43
2023-05-30 10:42:00,,0829.7,5.01,0.00,29.5,27.7,00.0,37.9,31.0,20.4,0000.0,0004.22,0008.99,0003.42
2023-05-30 10:43:00,,0829.6,5.01,0.00,29.5,27.7,00.0,37.9,31.0,20.4,0000.0,0004.18,0008.94,0003.42
2023-05-30 10:44:00,,0829.6,4.99,0.00,29.5,27.7,00.0,37.9,31.0,20.3,0000.0,0004.19,0008.45,0003.42
2023-05-30 10:45:00,,0829.6,4.99,0.00,29.5,27.7,00.0,37.9,31.0,20.3,0000.0,0004.20,0008.45,0003.41
2023-05-30 10:46:00,,0829.6,5.01,0.00,29.4,27.7,00.0,37.9,31.0,20.1,0000.0,0004.22,0008.95,0003.41
2023-05-30 10:47:00,,0829.6,5.01,0.00,29.4,27.6,00.0,37.9,31.0,20.1,0000.0,0004.21,0009.20,0003.40
2023-05-30 10:48:00,,0829.7,5.01,0.00,29.4,27.6,00.0,37.9,31.0,20.2,0000.0,0004.21,0009.50,0003.41
2023-05-30 10:49:00,,0829.7,4.99,0.00,29.4,27.6,00.0,37.8,31.0,20.3,0000.0,0004.21,0009.58,0003.41
2023-05-30 10:50:00,,0829.7,4.99,0.00,29.4,27.6,00.0,37.8,31.0,20.3,0000.0,0004.17,0009.42,0003.39
2023-05-30 10:51:00,,0829.7,5.00,0.00,29.4,27.6,00.0,37.8,31.0,20.3,0000.0,0004.16,0009.51,0003.38
2023-05-30 10:52:00,,0829.7,5.00,0.00,29.4,27.6,00.0,37.8,31.0,20.3,0000.0,0004.18,0010.02,0003.38
2023-05-30 10:53:00,,0829.7,5.01,0.00,29.4,27.6,00.0,37.8,31.0,20.4,0000.0,0004.21,0010.36,0003.38
2023-05-30 10:54:00,,0829.7,5.00,0.00,29.4,27.6,00.0,37.8,31.0,20.4,0000.0,0004.29,0010.50,0003.39
2023-05-30 10:55:00,,0829.7,5.00,0.00,29.4,27.6,00.0,37.8,31.0,20.5,0000.0,0004.29,0010.39,0003.39
2023-05-30 10:56:00,,0829.7,5.00,0.00,29.4,27.6,00.0,37.8,31.0,20.5,0000.0,0004.29,0010.36,0003.39
2023-05-30 10:57:00,,0829.7,5.00,0.00,29.4,27.6,00.0,37.8,30.9,20.5,0000.0,0004.28,0010.34,0003.39
2023-05-30 10:58:00,,0829.7,5.01,0.00,29.4,27.6,00.0,37.8,30.9,20.5,0000.0,0004.27,0009.95,0003.39
2023-05-30 10:59:00,,0829.7,5.00,0.00,29.4,27.6,00.0,37.8,30.9,20.5,0000.0,0004.27,0009.59,0003.38
